Location: Campbell Lake
(32.1204°N, 97.6289°W)
Time: 19:33:46
(UTC+00:00)

ISS - Visible Passes

Search period start: 12 December 2025 00:00
Search period end: 22 December 2025 00:00
Orbit: 416 x 420 km, 51.6° (Epoch: 12 December)

Date Brightness Start Highest point End Pass type
(mag) Time Alt. Az. Time Alt. Az. Time Alt. Az.
12 Dec -0.6 11:32:55 10° SSE 11:35:00 16° SE 11:37:05 10° E visible
13 Dec -3.8 12:20:11 10° SW 12:23:32 68° NW 12:26:53 10° NE visible
14 Dec -3.2 11:35:35 57° SE 11:35:35 57° SE 11:38:53 10° NE visible
15 Dec -2.4 12:23:48 20° NW 12:24:24 22° NW 12:27:05 10° NNE visible
16 Dec -1.4 11:38:36 16° NNE 11:38:36 16° NNE 11:39:25 10° NNE visible
